TimeCST,TemperatureF,Dew PointF,Humidity,Sea Level PressureIn,VisibilityMPH,Wind Direction,Wind SpeedMPH,Gust SpeedMPH,PrecipitationIn,Events,Conditions,WindDirDegrees,DateUTC
12:53 AM,48.0,46.0,93,30.15,4.0,Calm,Calm,-,N/A,,Clear,0,2012-11-21 06:53:00
1:31 AM,42.8,41.0,93,30.15,1.5,Calm,Calm,-,N/A,,Clear,0,2012-11-21 07:31:00
1:39 AM,41.0,39.2,93,30.15,0.5,Calm,Calm,-,N/A,Fog,Fog,0,2012-11-21 07:39:00
1:43 AM,41.0,39.2,93,30.16,0.2,WNW,3.5,-,N/A,Fog,Fog,300,2012-11-21 07:43:00
1:53 AM,42.1,42.1,100,30.17,0.2,WNW,3.5,-,N/A,Fog,Fog,300,2012-11-21 07:53:00
2:07 AM,44.6,44.6,100,30.17,1.0,WNW,3.5,-,N/A,,Mist,300,2012-11-21 08:07:00
2:14 AM,44.6,42.8,93,30.17,1.8,WNW,3.5,-,N/A,,Scattered Clouds,290,2012-11-21 08:14:00
2:35 AM,44.6,44.6,100,30.17,2.0,West,3.5,-,N/A,,Clear,260,2012-11-21 08:35:00
2:53 AM,46.0,45.0,96,30.18,2.0,Calm,Calm,-,N/A,,Clear,0,2012-11-21 08:53:00
3:15 AM,44.6,44.6,100,30.18,1.8,West,3.5,-,N/A,,Clear,260,2012-11-21 09:15:00
3:37 AM,44.6,42.8,93,30.18,0.5,WSW,3.5,-,N/A,Fog,Fog,250,2012-11-21 09:37:00
3:44 AM,39.2,39.2,100,30.18,0.2,West,3.5,-,N/A,Fog,Fog,260,2012-11-21 09:44:00
3:53 AM,39.0,37.9,96,30.19,0.2,Calm,Calm,-,N/A,Fog,Fog,0,2012-11-21 09:53:00
4:39 AM,42.8,42.8,100,30.20,0.2,Calm,Calm,-,N/A,Fog,Fog,0,2012-11-21 10:39:00
4:53 AM,43.0,42.1,97,30.20,0.2,Calm,Calm,-,N/A,Fog,Fog,0,2012-11-21 10:53:00
5:06 AM,37.4,37.4,100,30.20,0.2,Calm,Calm,-,N/A,Fog,Fog,0,2012-11-21 11:06:00
5:41 AM,44.6,42.8,93,30.21,0.2,Calm,Calm,-,N/A,Fog,Fog,0,2012-11-21 11:41:00
5:53 AM,37.9,37.0,97,30.22,0.2,Calm,Calm,-,N/A,Fog,Fog,0,2012-11-21 11:53:00
6:01 AM,42.8,39.2,87,30.22,1.0,Calm,Calm,-,N/A,,Mist,0,2012-11-21 12:01:00
6:11 AM,42.8,42.8,100,30.22,1.5,Calm,Calm,-,N/A,,Partly Cloudy,0,2012-11-21 12:11:00
6:25 AM,39.2,39.2,100,30.22,0.5,Calm,Calm,-,N/A,Fog,Fog,0,2012-11-21 12:25:00
6:33 AM,37.4,37.4,100,30.23,0.2,Calm,Calm,-,N/A,Fog,Fog,0,2012-11-21 12:33:00
6:53 AM,39.9,39.0,97,30.23,0.2,Calm,Calm,-,N/A,Fog,Fog,0,2012-11-21 12:53:00
7:53 AM,44.1,43.0,96,30.25,0.2,Calm,Calm,-,N/A,Fog,Fog,0,2012-11-21 13:53:00
8:05 AM,46.4,46.4,100,30.25,0.8,Calm,Calm,-,N/A,,Mist,0,2012-11-21 14:05:00
8:08 AM,46.4,46.4,100,30.25,1.0,Calm,Calm,-,N/A,,Clear,0,2012-11-21 14:08:00
8:40 AM,48.2,46.4,93,30.25,2.0,Calm,Calm,-,N/A,,Clear,0,2012-11-21 14:40:00
8:53 AM,48.9,48.0,97,30.26,2.5,Calm,Calm,-,N/A,,Clear,0,2012-11-21 14:53:00
9:03 AM,51.8,48.2,88,30.26,3.0,Calm,Calm,-,N/A,,Clear,0,2012-11-21 15:03:00
9:53 AM,55.9,48.9,77,30.27,5.0,ENE,3.5,-,N/A,,Haze,70,2012-11-21 15:53:00
10:53 AM,60.1,46.9,62,30.27,7.0,NE,9.2,-,N/A,,Clear,50,2012-11-21 16:53:00
11:53 AM,62.1,46.9,58,30.24,7.0,Variable,5.8,-,N/A,,Clear,0,2012-11-21 17:53:00
12:53 PM,64.0,46.0,52,30.22,8.0,North,5.8,-,N/A,,Clear,10,2012-11-21 18:53:00
1:53 PM,64.9,46.9,52,30.20,8.0,North,5.8,-,N/A,,Clear,350,2012-11-21 19:53:00
2:53 PM,64.9,46.9,52,30.20,7.0,ENE,3.5,-,N/A,,Clear,60,2012-11-21 20:53:00
3:53 PM,64.0,45.0,50,30.19,7.0,Calm,Calm,-,N/A,,Clear,0,2012-11-21 21:53:00
4:53 PM,57.0,45.0,64,30.19,8.0,Calm,Calm,-,N/A,,Clear,0,2012-11-21 22:53:00
5:53 PM,50.0,44.1,80,30.20,8.0,Calm,Calm,-,N/A,,Clear,0,2012-11-21 23:53:00
6:53 PM,46.0,43.0,89,30.21,6.0,Calm,Calm,-,N/A,,Clear,0,2012-11-22 00:53:00
7:53 PM,41.0,39.0,93,30.21,5.0,Calm,Calm,-,N/A,,Clear,0,2012-11-22 01:53:00
8:53 PM,44.1,41.0,89,30.20,4.0,Calm,Calm,-,N/A,,Clear,0,2012-11-22 02:53:00
9:53 PM,42.1,39.9,92,30.20,3.0,Calm,Calm,-,N/A,,Clear,0,2012-11-22 03:53:00
10:53 PM,41.0,39.0,93,30.20,3.0,Calm,Calm,-,N/A,,Clear,0,2012-11-22 04:53:00
11:00 PM,41.0,39.2,93,30.19,2.5,Calm,Calm,-,N/A,,Clear,0,2012-11-22 05:00:00
11:11 PM,42.8,39.2,87,30.19,1.8,Calm,Calm,-,N/A,,Clear,0,2012-11-22 05:11:00
11:19 PM,41.0,39.2,93,30.19,2.0,Calm,Calm,-,N/A,,Clear,0,2012-11-22 05:19:00
11:37 PM,37.4,37.4,100,30.19,3.0,Calm,Calm,-,N/A,,Clear,0,2012-11-22 05:37:00
11:45 PM,39.2,37.4,93,30.19,2.5,Calm,Calm,-,N/A,,Clear,0,2012-11-22 05:45:00
11:53 PM,39.0,37.0,93,30.19,2.0,Calm,Calm,-,N/A,,Clear,0,2012-11-22 05:53:00